Miscellaneous Local Product
Issued by NWS North Platte, NE

Home | Current Version | Previous Version | Graphics & Text | Print | Product List | Glossary On
Versions: 1 2 3 4 5 6 7 8 9 10 11 12 13 14 15 16 17 18 19 20 21 22 23 24 25 26 27 28 29 30 31 32 33 34 35 36 37 38 39 40 41 42 43 44 45 46 47 48 49 50
597
AXUS43 KLBF 150410
MISLBF


WESTERN AND NORTH CENTRAL NEBRASKA HOURLY WEATHER ROUNDUP
NATIONAL WEATHER SERVICE NORTH PLATTE NE
1000 PM CST THU DEC 14 2017

NOTE: "FAIR" INDICATES FEW OR NO CLOUDS BELOW 12,000 FEET WITH NO
SIGNIFICANT WEATHER AND/OR OBSTRUCTIONS TO VISIBILITY.

NOTE: STATIONS NOT REPORTING VARIABLES SUCH AS SKY/WEATHER OR
PRESSURE ARE PROVIDED BY RAWS AND APRS NETWORKS AND ARE NOT UNDER
NATIONAL WEATHER SERVICE QUALITY CONTROL.

...OBSERVATIONS IN AND NEAR THE EASTERN PANHANDLE OF NEBRASKA...

CITY           SKY/WX    TMP DP  RH WIND       PRES   REMARKS
PINE RIDGE     CLEAR     22  18  85 SW3       30.16F
GORDON         FAIR      19  16  87 W6        30.15F WCI  11
CHADRON        CLEAR     16  13  88 SW8       30.18F WCI   5
ALLIANCE       CLOUDY    10   9  95 W10       30.17F WCI  -4
SIDNEY         CLOUDY    12  10  92 W8        30.20F WCI   0
CRESCENT LAKE    N/A     20  16  83 W8          N/A  WCI  10
$$

...OBSERVATIONS IN NORTHERN NEBRASKA AND FAR SOUTHERN SOUTH DAKOTA...

CITY           SKY/WX    TMP DP  RH WIND       PRES   REMARKS
WINNER         CLOUDY    33  28  81 W10       30.14F WCI  25
VALENTINE      CLOUDY    32  28  85 W7        30.16F WCI  26
THEDFORD       CLOUDY    28  26  91 W6        30.18F WCI  22
AINSWORTH      CLOUDY    30  28  92 W7        30.15F WCI  23
O`NEILL        CLOUDY    31  28  88 NW5       30.15F WCI  26
ORD            PTCLDY    30  22  72 NW12      30.17S WCI  20
BROKEN BOW     CLOUDY    31  24  75 N8        30.18F WCI  23
VALENTINE NWR    N/A     29  27  93 W5          N/A  WCI  24
HALSEY           N/A     30  25  83 NW5G12      N/A  WCI  25
BUTTE            N/A     29  26  88 W5          N/A  WCI  24
CHAMBERS         N/A     30  25  81 W3          N/A
EWING            N/A     31  28  88 NW5         N/A  WCI  26
$$

...OBSERVATIONS IN SOUTHWEST NEBRASKA AND FAR NORTHEAST COLORADO...

CITY           SKY/WX    TMP DP  RH WIND       PRES   REMARKS
WRAY           FAIR      23  18  80 NW9       30.24F WCI  13
HOLYOKE        FAIR      25  18  74 W8        30.23S WCI  16
IMPERIAL       CLEAR     27  21  78 W6        30.23S WCI  20
OGALLALA       CLEAR     22  18  85 NW6       30.21F WCI  15
NORTH PLATTE   CLOUDY    31  24  75 W9        30.20F WCI  23
MCCOOK         CLEAR     28  22  78 NW10      30.23S WCI  19
LEXINGTON      CLOUDY    31  27  85 NW3       30.21S
STAPLETON        N/A     27  23  83 CALM        N/A
GOTHENBURG       N/A     33  25  72 NW8         N/A  WCI  26
CALLAWAY         N/A     31  25  79 N8          N/A  WCI  24
$$

...OBSERVATIONS IN CENTRAL LINCOLN COUNTY AREA...

CITY           SKY/WX    TMP DP  RH WIND       PRES   REMARKS
N.P. AIRPORT   CLOUDY    31  24  75 W9        30.20F WCI  23
N.P. DOWNTOWN    N/A     31  25  78 CALM        N/A
N.P. SOUTHEAST   N/A     31  24  75 CALM        N/A
N.P. HILLCREST   N/A     30  25  83 W5          N/A  WCI  25
$$

...SOME OBSERVATIONS FROM AROUND THE REGION...

CITY           SKY/WX    TMP DP  RH WIND       PRES   REMARKS
DENVER         CLEAR     23  14  68 S8        30.23F WCI  14
GRAND JUNCTION CLEAR     32  14  47 E6        30.35S WCI  26
LARAMIE        CLOUDY     7   4  87 SE10      30.19F WCI  -8
CHEYENNE       CLOUDY    24  11  57 W12       30.16S WCI  13
CASPER         CLOUDY    27  16  63 SW18      30.18F WCI  14
BISMARCK       CLOUDY    35  25  66 W8        30.03F WCI  29
RAPID CITY     CLOUDY    16  11  80 CALM      30.12F
PIERRE         CLOUDY    32  27  81 W10       30.10F WCI  24
SIOUX FALLS    CLOUDY    28  23  81 W7        30.09S WCI  21
OMAHA          CLOUDY    38  26  62 NW14      30.12S WCI  30
GRAND ISLAND   MOCLDY    32  30  92 NW14      30.18F WCI  22
SCOTTSBLUFF    CLOUDY    15  12  88 CALM      30.20F
KANSAS CITY    CLOUDY    35  24  64 SE3       30.12S
HILL CITY      CLOUDY    34  27  75 NW6       30.24R WCI  29
WICHITA        PTCLDY    41  33  73 N14       30.18R
DODGE CITY     MOCLDY    30  22  72 NW9       30.24R WCI  22
OKLAHOMA CITY  PTCLDY    36  26  67 CALM      30.18R
DALLAS         PTCLDY    47  28  47 N10       30.21R
AMARILLO       MOCLDY    38  25  59 N10       30.29R WCI  31
$$




USA.gov is the U.S. government's official web portal to all federal, state and local government web resources and services.